[[{"header":{"parameterUnit":"m.s-1","parameterCategory":1,"la1":30.2991,"la2":30.254,"lo1":-89.0895,"lo2":-89.0444,"dy":0.0017,"dx":0.0017,"nx":28,"ny":28,"refTime":"2024-06-13T09:00:00:Z","depth":0,"parameterNumber":2,"parameterNumberName":"U-component_of_WINDS"},"data":[0,0,0,0,0,0,0,0,0,0,0,0,0,0,0,0,0,0,0,0,0,0,0,0,0,0,0,0,0,0,0,0,0,0,0,0,0,0,0,0,0,0,0,0,0,0,0,0,0,0,0,0,0,0,0,0,0,0,1.7558,1.7559,0,1.7621,1.7622,1.7623,1.7629,1.7629,1.7628,1.7628,1.7689,1.7691,1.7693,0,0,0,0,0,0,0,0,0,0,0,0,0,1.7441,1.7443,1.7558,1.7559,1.756,1.7621,1.7622,1.7623,1.763,1.7629,1.7628,1.7627,1.7688,1.7691,1.7694,0,0,0,0,0,0,0,0,0,0,0,0,0,1.7496,1.7443,1.7558,1.7571,1.7572,1.7621,1.7622,1.7623,1.763,1.7629,1.7628,1.7627,1.7687,1.7691,1.7694,1.7733,0,0,1.7704,1.7706,0,0,0,0,0,0,0,0,1.7493,1.7501,1.7568,1.757,1.7572,1.7617,1.7603,1.766,1.763,1.7608,1.7628,1.7627,1.7666,1.7671,1.7684,1.7736,1.7739,1.7704,1.7707,1.7708,1.7709,0,0,0,0,0,0,0,1.7489,1.7498,1.7583,1.7569,1.7571,1.7572,1.7579,1.7614,1.7641,1.761,1.761,1.7618,1.7666,1.7681,1.7686,1.774,1.7704,1.7707,1.7709,1.7711,1.7825,1.7826,0,0,0,0,0,0,1.7483,1.7495,1.7581,1.7585,1.753,1.7575,1.7583,1.7603,1.7641,1.7646,1.7619,1.7618,1.7676,1.7682,1.7688,1.7735,1.7708,1.7711,1.7713,1.7824,1.7826,1.7827,0,0,0,0,0,0,1.7481,1.7491,1.7579,1.754,1.7551,1.7578,1.7601,1.7605,1.762,1.7648,1.7652,1.7629,1.7675,1.7683,1.7722,1.7738,1.7713,1.7716,1.7823,1.7825,1.7826,1.7831,0,0,0,0,0,0,1.7478,1.749,1.7506,1.754,1.7553,1.7612,1.7602,1.7607,1.7626,1.7626,1.7658,1.7663,1.7675,1.7717,1.7725,1.7742,1.7718,1.7822,1.7824,1.7826,1.783,1.7833,1.7835,0,0,0,0,0,1.7473,1.7505,1.7507,1.7518,1.7574,1.7613,1.7621,1.7635,1.7627,1.7643,1.766,1.7662,1.7735,1.7721,1.773,1.7748,1.7821,1.7823,1.7826,1.7828,1.7832,1.7835,0,0,0,0,0,0,1.7471,1.751,1.7513,1.7556,1.7582,1.7614,1.7635,1.7639,1.7666,1.7665,1.768,1.7688,1.7725,1.7741,1.7724,1.7787,1.7777,1.7781,1.7776,1.778,1.7782,1.7777,1.7721,0,0,0,0,0,1.7476,1.7506,1.7537,1.7573,1.7586,1.7608,1.7626,1.7635,1.7661,1.7671,1.7692,1.7717,1.7745,1.7763,1.7791,1.7832,1.7839,1.7849,1.7852,1.7854,1.7857,1.7878,1.7883,1.7835,1.7835,1.7834,0,0,1.7486,1.7511,1.7528,1.7573,1.7594,1.7623,1.7617,1.7648,1.7669,1.7676,1.7713,1.7729,1.7758,1.7797,1.7816,1.7811,1.7872,1.7857,1.7859,1.7861,1.7881,1.7886,1.789,1.7836,1.7836,1.7836,0,0,1.7519,1.7541,1.7572,1.7593,1.7625,1.7639,1.7647,1.7679,1.769,1.7728,1.7733,1.7758,1.7807,1.7827,1.7843,1.7883,1.7884,1.7891,1.7905,1.7926,1.793,1.7933,1.7946,1.795,1.7895,1.7895,1.7895,0,1.7527,1.7572,1.7588,1.7619,1.7638,1.7646,1.7677,1.7696,1.7734,1.7746,1.7741,1.7802,1.7822,1.7865,1.7875,1.7889,1.7896,1.7887,1.7928,1.7932,1.7935,1.7947,1.7952,1.7895,1.7895,1.7895,1.7895,0,1.7579,1.761,1.7632,1.7669,1.7691,1.7721,1.7741,1.776,1.7767,1.7782,1.782,1.7844,1.7876,1.7887,1.7894,1.7932,1.7928,1.7925,1.7915,1.794,1.7952,1.7956,1.7896,1.7896,1.7895,1.7895,0,0,1.7612,1.7658,1.7666,1.7682,1.7717,1.7741,1.7771,1.7804,1.7819,1.7845,1.787,1.7911,1.7909,1.7927,1.7937,1.7955,1.7983,1.795,1.7951,1.7954,1.8023,1.8024,1.8029,1.7984,1.7985,1.7986,1.802,0,1.7648,1.7703,1.7718,1.7765,1.7793,1.78,1.7827,1.785,1.7865,1.789,1.7905,1.7933,1.7929,1.794,1.7959,1.7975,1.7996,1.7973,1.8006,1.8007,1.7998,1.8036,1.8037,1.8068,1.8025,1.8026,1.8027,0,1.7697,1.7724,1.7774,1.7804,1.7816,1.784,1.787,1.7894,1.7921,1.793,1.795,1.7957,1.7988,1.7977,1.8018,1.8002,1.8016,1.8027,1.8028,1.8031,1.8017,1.8038,1.8078,1.8082,1.8034,1.8033,1.8033,0,1.7714,1.7764,1.7799,1.7813,1.785,1.7866,1.7882,1.7908,1.7926,1.7951,1.7963,1.7992,1.8007,1.8029,1.8043,1.8034,1.8083,1.8073,1.809,1.809,1.8099,1.8098,1.8141,1.8111,1.811,1.811,1.811,0,1.7752,1.7781,1.7807,1.7829,1.7862,1.7878,1.791,1.7926,1.7948,1.7972,1.7981,1.8003,1.8021,1.8045,1.8057,1.8088,1.8096,1.8103,1.8105,1.8101,1.81,1.811,1.8108,1.8112,1.8111,1.8111,1.8111,0,1.7776,1.7795,1.7834,1.7866,1.7874,1.7897,1.7923,1.7944,1.7959,1.7989,1.7997,1.8019,1.8048,1.8065,1.8101,1.8109,1.8143,1.8145,1.8135,1.8135,1.8151,1.8148,1.8201,1.8208,1.8173,1.8174,1.8174,0,1.7798,1.7821,1.7855,1.7872,1.7888,1.7916,1.7934,1.7951,1.7969,1.8001,1.8017,1.8047,1.8071,1.8116,1.8135,1.8163,1.8164,1.8181,1.8169,1.8164,1.8163,1.8161,1.8163,1.8182,1.8183,1.8183,1.8183,0,1.7835,1.7843,1.787,1.79,1.7921,1.7945,1.7969,1.7982,1.8003,1.8023,1.8053,1.8072,1.8109,1.8137,1.8166,1.8181,1.8185,1.8187,1.8192,1.8188,1.818,1.8183,1.8139,1.8186,1.8185,1.8185,1.8185,1.8185,1.7858,1.7878,1.7905,1.7934,1.7954,1.7976,1.7996,1.8014,1.8039,1.8071,1.8079,1.811,1.8134,1.8174,1.8189,1.8213,1.821,1.8218,1.8219,1.8221,1.822,1.8177,1.8218,1.8218,1.8218,1.8218,1.8218,0,1.7894,1.7912,1.7938,1.7971,1.7994,1.7997,1.8023,1.8041,1.8069,1.8092,1.8115,1.8149,1.8176,1.8197,1.8225,1.824,1.8242,1.8247,1.8245,1.8248,1.8222,1.8214,1.8244,1.8244,1.8244,1.8244,1.8244,1.8244,1.7916,1.7949,1.796,1.8004,1.8021,1.8052,1.8066,1.8086,1.8104,1.8141,1.8164,1.8178,1.82,1.8229,1.8254,1.826,1.8269,1.8272,1.8278,1.8253,1.825,1.8247,1.824,1.8275,1.8275,1.8302,1.8302,1.8302]},{"header":{"parameterUnit":"m.s-1","parameterCategory":1,"la1":30.2991,"la2":30.254,"lo1":-89.0895,"lo2":-89.0444,"dy":0.0017,"dx":0.0017,"nx":28,"ny":28,"refTime":"2024-06-13T09:00:00:Z","depth":0,"parameterNumber":3,"parameterNumberName":"V-component_of_WINDS"},"data":[0,0,0,0,0,0,0,0,0,0,0,0,0,0,0,0,0,0,0,0,0,0,0,0,0,0,0,0,0,0,0,0,0,0,0,0,0,0,0,0,0,0,0,0,0,0,0,0,0,0,0,0,0,0,0,0,0,0,0.2134,0.2134,0,0.2083,0.2083,0.2082,0.2036,0.2036,0.2035,0.2035,0.1981,0.198,0.1979,0,0,0,0,0,0,0,0,0,0,0,0,0,0.219,0.2189,0.2134,0.2133,0.2133,0.2083,0.2083,0.2082,0.2036,0.2036,0.2035,0.2034,0.1981,0.198,0.1979,0,0,0,0,0,0,0,0,0,0,0,0,0,0.2155,0.2189,0.2134,0.2104,0.2101,0.2083,0.2082,0.2082,0.2036,0.2036,0.2035,0.2034,0.1982,0.198,0.1979,0.1987,0,0,0.1975,0.1974,0,0,0,0,0,0,0,0,0.2157,0.2153,0.2109,0.2106,0.2103,0.2065,0.2082,0.205,0.2037,0.2061,0.2035,0.2034,0.201,0.2006,0.1998,0.1984,0.1982,0.1975,0.1974,0.1973,0.1973,0,0,0,0,0,0,0,0.2159,0.2155,0.2114,0.2109,0.2105,0.2092,0.2087,0.2076,0.204,0.2059,0.2055,0.205,0.2008,0.2,0.1997,0.1981,0.1975,0.1974,0.1973,0.1972,0.1969,0.197,0,0,0,0,0,0,0.2167,0.2157,0.2115,0.2112,0.2128,0.2092,0.2086,0.2078,0.204,0.2034,0.2051,0.2048,0.2002,0.1998,0.1994,0.2,0.1973,0.1972,0.1971,0.1969,0.1969,0.197,0,0,0,0,0,0,0.2168,0.2163,0.2118,0.2134,0.2127,0.2092,0.2084,0.2077,0.2069,0.2034,0.2028,0.2049,0.2002,0.1996,0.1989,0.1998,0.1971,0.197,0.1968,0.1969,0.197,0.2012,0,0,0,0,0,0,0.217,0.2164,0.2167,0.2134,0.2126,0.2114,0.2084,0.2077,0.2067,0.2063,0.2031,0.2025,0.2,0.1991,0.1987,0.1995,0.1969,0.1967,0.1968,0.197,0.201,0.2015,0.2019,0,0,0,0,0,0.2172,0.2181,0.2168,0.2163,0.213,0.2114,0.211,0.2082,0.2068,0.2071,0.2048,0.2026,0.1997,0.1991,0.1986,0.1994,0.1966,0.1968,0.1969,0.2008,0.2014,0.2019,0,0,0,0,0,0,0.2217,0.2177,0.2161,0.216,0.2141,0.2107,0.2109,0.2089,0.2073,0.207,0.2035,0.2028,0.2024,0.2008,0.2002,0.1998,0.1979,0.1979,0.2009,0.2015,0.2019,0.2023,0.1968,0,0,0,0,0,0.2226,0.2218,0.2183,0.2185,0.2177,0.2145,0.2137,0.2117,0.2095,0.2087,0.2064,0.2043,0.2029,0.2021,0.2006,0.2007,0.1999,0.201,0.2014,0.2018,0.2019,0.2017,0.2021,0.1976,0.1976,0.1976,0,0,0.2246,0.2223,0.222,0.2194,0.2177,0.2168,0.2138,0.213,0.2123,0.2085,0.2077,0.2059,0.2034,0.203,0.2027,0.2016,0.203,0.202,0.2024,0.2023,0.2019,0.2024,0.2028,0.1977,0.1977,0.1977,0,0,0.2278,0.2261,0.226,0.2243,0.2217,0.2196,0.2196,0.2164,0.2151,0.2141,0.2113,0.2103,0.208,0.2063,0.2052,0.2075,0.2054,0.2071,0.2095,0.2093,0.2097,0.21,0.2107,0.2111,0.2073,0.2073,0.2073,0,0.2307,0.2293,0.2262,0.2256,0.2245,0.221,0.2209,0.2194,0.2165,0.2157,0.2145,0.2115,0.2096,0.2087,0.2093,0.2085,0.2083,0.2075,0.2099,0.2101,0.2104,0.2111,0.2114,0.2075,0.2075,0.2074,0.2074,0,0.2328,0.2319,0.2321,0.2294,0.2283,0.2279,0.2247,0.224,0.222,0.2199,0.219,0.2165,0.2144,0.214,0.2122,0.2129,0.2122,0.2105,0.2085,0.2111,0.2117,0.2119,0.2078,0.2077,0.2077,0.2076,0,0,0.2388,0.2343,0.2344,0.2331,0.2299,0.2291,0.2285,0.2265,0.2258,0.2239,0.2232,0.2213,0.2196,0.2183,0.2161,0.216,0.2179,0.2142,0.2141,0.215,0.2184,0.2198,0.2201,0.2165,0.2165,0.2166,0.2186,0,0.2414,0.2402,0.2374,0.2371,0.2361,0.2327,0.2322,0.2301,0.2281,0.2269,0.2247,0.2234,0.2213,0.2204,0.2202,0.2178,0.2186,0.2176,0.2158,0.2157,0.2165,0.2205,0.2219,0.224,0.2189,0.2189,0.2189,0,0.2444,0.2426,0.2422,0.239,0.2384,0.238,0.2359,0.2348,0.2323,0.2309,0.2293,0.2269,0.226,0.2241,0.2227,0.2221,0.2211,0.2198,0.2198,0.2196,0.2175,0.2203,0.2246,0.2249,0.2193,0.2192,0.2192,0,0.2487,0.2463,0.2456,0.2446,0.2408,0.2406,0.239,0.2364,0.2354,0.2335,0.2327,0.2307,0.2296,0.2281,0.2251,0.224,0.224,0.2219,0.2227,0.2228,0.2229,0.2229,0.2271,0.2223,0.2223,0.2223,0.2223,0,0.252,0.2518,0.2475,0.2472,0.2468,0.2435,0.2433,0.2413,0.2391,0.2382,0.2351,0.2343,0.2305,0.2292,0.2269,0.2261,0.2256,0.2243,0.2237,0.2246,0.2248,0.224,0.2237,0.2224,0.2224,0.2224,0.2223,0,0.2568,0.2539,0.253,0.2495,0.2486,0.2485,0.2454,0.2449,0.2427,0.2415,0.2411,0.2376,0.2359,0.2328,0.2303,0.2287,0.2283,0.2273,0.2292,0.2288,0.2298,0.2297,0.2336,0.2339,0.229,0.229,0.2291,0,0.2591,0.2589,0.2553,0.2545,0.2531,0.2518,0.2507,0.2474,0.2463,0.2434,0.2432,0.2413,0.2396,0.237,0.2342,0.2322,0.2311,0.2325,0.2307,0.2316,0.231,0.2311,0.231,0.233,0.233,0.2331,0.2331,0,0.2634,0.262,0.2605,0.2585,0.2572,0.2555,0.2536,0.2531,0.2493,0.2482,0.2465,0.2452,0.2426,0.2407,0.2382,0.2365,0.2341,0.2337,0.2338,0.2347,0.2358,0.2352,0.2303,0.2337,0.2336,0.2336,0.2335,0.2335,0.267,0.2666,0.264,0.2625,0.2607,0.2589,0.2582,0.2558,0.2544,0.252,0.2501,0.2485,0.2458,0.2423,0.2407,0.2393,0.2382,0.2384,0.2384,0.2385,0.2388,0.236,0.2389,0.2388,0.2388,0.2388,0.2388,0,0.2712,0.2693,0.2679,0.2653,0.264,0.2619,0.2597,0.2587,0.2574,0.2551,0.2535,0.2514,0.2495,0.2465,0.2444,0.2438,0.2427,0.2434,0.2434,0.243,0.2399,0.2401,0.2443,0.2443,0.2443,0.2443,0.2443,0.2443,0.2732,0.2724,0.2706,0.2688,0.2669,0.2654,0.2642,0.2625,0.2607,0.2586,0.257,0.2551,0.2525,0.2501,0.2482,0.2473,0.2467,0.2477,0.2465,0.2437,0.2432,0.2427,0.2428,0.2475,0.2476,0.2496,0.2496,0.2496]}]]